Lambertville, OH

1:11 PM EDT on March 30, 2017 (GMT -0400)
Lambertville

Weather History for KDUH - March, 2014

Change the Weather History Date:

Saturday, March 1, 2014

  Actual Average (KTOL) Record (KTOL)
Temperature  
Mean Temperature 25 °F -  
Max Temperature 33 °F 41 °F 65 °F (1997)
Min Temperature 17 °F 23 °F 2 °F (1960)
Degree Days  
Heating Degree Days 40    
Moisture  
Dew Point 17 °F    
Average Humidity 67    
Maximum Humidity 86    
Minimum Humidity 48    
Precipitation  
Precipitation 0.00 in - - ()
Sea Level Pressure  
Sea Level Pressure 30.12 in    
Wind  
Wind Speed 3 mph (WNW)    
Max Wind Speed 10 mph    
Max Gust Speed -    
Visibility 8 miles    
Events Snow    
Averages and records for this station are not official NWS values.
T = Trace of Precipitation, MM = Missing Value Source: NWS Daily Summary

Daily Weather History Graph

Daily Weather History Graph

Search for Another Location

Airport or City:

Trip Planner

Search our weather history database for the weather conditions in past years. The results will help you decide how hot, cold, wet, or windy it might be!

Date:

Astronomy

Mar. 01, 2014 Rise Set
Actual Time 7:09 AM EST 6:25 PM EST
Civil Twilight 6:41 AM EST 6:52 PM EST
Nautical Twilight 6:09 AM EST 7:25 PM EST
Astronomical Twilight 5:37 AM EST 7:57 PM EST
Moon 7:01 AM EST (3/1) 7:12 PM EST (3/1)
Length of Visible Light 12h 11m
Length of Day
11h 15m
New Moon, 0% of the Moon is Illuminated
Mar 1
New Moon
Mar 8
First Quarter
Mar 16
Full
Mar 23
Last Quarter
Mar 30
New

Hourly Weather History & Observations

Time (EST) Temp. Windchill Dew Point Humidity Pressure Visibility Wind Dir Wind Speed Gust Speed Precip Events Conditions
12:15 AM 17.6 °F - 12.2 °F 79% 30.08 in 10.0 mi Calm Calm - N/A   Clear
12:35 AM 17.6 °F - 14.0 °F 86% 30.07 in 10.0 mi Calm Calm - N/A   Clear
12:55 AM 19.4 °F - 14.0 °F 80% 30.08 in 10.0 mi Calm Calm - N/A   Clear
1:15 AM 17.6 °F - 14.0 °F 86% 30.08 in 10.0 mi Calm Calm - N/A   Clear
1:35 AM 19.4 °F 14.3 °F 14.0 °F 80% 30.07 in 10.0 mi SSE 3.5 mph - N/A   Clear
1:55 AM 23.0 °F - 12.2 °F 63% 30.07 in 10.0 mi Calm Calm - N/A   Clear
2:15 AM 23.0 °F 17.0 °F 10.4 °F 59% 30.06 in 10.0 mi South 4.6 mph - N/A   Scattered Clouds
2:35 AM 24.8 °F 19.1 °F 10.4 °F 54% 30.05 in 10.0 mi South 4.6 mph - N/A   Scattered Clouds
2:55 AM 24.8 °F 19.1 °F 10.4 °F 54% 30.05 in 10.0 mi South 4.6 mph - N/A   Scattered Clouds
3:15 AM 24.8 °F 17.9 °F 10.4 °F 54% 30.04 in 10.0 mi South 5.8 mph - N/A   Scattered Clouds
3:35 AM 24.8 °F 20.5 °F 10.4 °F 54% 30.05 in 10.0 mi South 3.5 mph - N/A   Scattered Clouds
3:55 AM 24.8 °F 20.5 °F 10.4 °F 54% 30.05 in 10.0 mi South 3.5 mph - N/A   Scattered Clouds
4:15 AM 24.8 °F 20.5 °F 10.4 °F 54% 30.05 in 10.0 mi South 3.5 mph - N/A   Clear
4:35 AM 24.8 °F 20.5 °F 10.4 °F 54% 30.06 in 10.0 mi SSW 3.5 mph - N/A   Scattered Clouds
4:55 AM 24.8 °F 20.5 °F 10.4 °F 54% 30.06 in 10.0 mi SW 3.5 mph - N/A   Mostly Cloudy
5:15 AM 26.6 °F 22.6 °F 10.4 °F 51% 30.06 in 10.0 mi SSW 3.5 mph - N/A   Overcast
5:35 AM 26.6 °F - 12.2 °F 55% 30.06 in 10.0 mi Calm Calm - N/A   Overcast
5:55 AM 26.6 °F - 12.2 °F 55% 30.06 in 10.0 mi Calm Calm - N/A   Mostly Cloudy
6:15 AM 26.6 °F - 12.2 °F 55% 30.07 in 10.0 mi Calm Calm - N/A   Scattered Clouds
6:35 AM 24.8 °F - 12.2 °F 59% 30.07 in 10.0 mi Calm Calm - N/A   Scattered Clouds
6:55 AM 24.8 °F - 12.2 °F 59% 30.07 in 10.0 mi Calm Calm - N/A   Mostly Cloudy
7:15 AM 24.8 °F - 14.0 °F 64% 30.08 in 10.0 mi Calm Calm - N/A   Mostly Cloudy
7:35 AM 26.6 °F - 14.0 °F 59% 30.08 in 10.0 mi Calm Calm - N/A   Overcast
7:55 AM 24.8 °F - 15.8 °F 69% 30.09 in 10.0 mi Calm Calm - N/A   Overcast
8:15 AM 26.6 °F - 17.6 °F 69% 30.10 in 10.0 mi Calm Calm - N/A   Overcast
8:35 AM 28.4 °F - 14.0 °F 55% 30.09 in 10.0 mi Calm Calm - N/A   Overcast
8:55 AM 28.4 °F 24.6 °F 14.0 °F 55% 30.10 in 10.0 mi SSW 3.5 mph - N/A   Overcast
9:15 AM 30.2 °F - 14.0 °F 51% 30.10 in 10.0 mi Calm Calm - N/A   Overcast
9:35 AM 32.0 °F - 14.0 °F 48% 30.10 in 10.0 mi Calm Calm - N/A   Overcast
9:55 AM 32.0 °F 25.6 °F 14.0 °F 48% 30.10 in 10.0 mi WSW 6.9 mph - N/A   Overcast
10:15 AM 32.0 °F 26.4 °F 14.0 °F 48% 30.11 in 10.0 mi West 5.8 mph - N/A   Overcast
10:35 AM 32.0 °F 25.6 °F 14.0 °F 48% 30.10 in 10.0 mi SW 6.9 mph - N/A   Overcast
10:55 AM 32.0 °F 26.4 °F 15.8 °F 51% 30.11 in 10.0 mi WSW 5.8 mph - N/A   Overcast
11:15 AM 32.0 °F 27.5 °F 17.6 °F 55% 30.11 in 10.0 mi West 4.6 mph - N/A   Overcast
11:35 AM 33.8 °F 28.6 °F 17.6 °F 52% 30.10 in 10.0 mi WSW 5.8 mph - N/A   Overcast
11:55 AM 33.8 °F 29.6 °F 17.6 °F 52% 30.11 in 10.0 mi West 4.6 mph - N/A   Overcast
12:15 PM 33.8 °F 27.7 °F 17.6 °F 52% 30.13 in 10.0 mi WNW 6.9 mph - N/A   Overcast
12:35 PM 33.8 °F 30.8 °F 19.4 °F 56% 30.09 in 10.0 mi West 3.5 mph - N/A   Overcast
12:55 PM 33.8 °F 27.7 °F 19.4 °F 56% 30.11 in 10.0 mi West 6.9 mph - N/A   Overcast
1:15 PM 32.0 °F 25.6 °F 19.4 °F 60% 30.12 in 10.0 mi West 6.9 mph - N/A   Overcast
1:35 PM 32.0 °F 25.6 °F 19.4 °F 60% 30.12 in 10.0 mi West 6.9 mph - N/A   Overcast
1:55 PM 32.0 °F 27.5 °F 19.4 °F 60% 30.11 in 10.0 mi West 4.6 mph - N/A   Overcast
2:15 PM 32.0 °F 26.4 °F 19.4 °F 60% 30.11 in 10.0 mi West 5.8 mph - N/A   Overcast
2:35 PM 32.0 °F 27.5 °F 19.4 °F 60% 30.10 in 10.0 mi West 4.6 mph - N/A   Overcast
2:55 PM 32.0 °F 27.5 °F 19.4 °F 60% 30.10 in 10.0 mi West 4.6 mph - N/A   Overcast
3:15 PM 32.0 °F 25.6 °F 19.4 °F 60% 30.11 in 10.0 mi West 6.9 mph - N/A   Overcast
3:35 PM 32.0 °F 26.4 °F 21.2 °F 64% 30.13 in 10.0 mi West 5.8 mph - N/A   Overcast
3:55 PM 32.0 °F 24.8 °F 21.2 °F 64% 30.13 in 10.0 mi WNW 8.1 mph - N/A   Overcast
4:15 PM 32.0 °F 25.6 °F 24.8 °F 75% 30.13 in 10.0 mi NW 6.9 mph - N/A   Overcast
4:35 PM 32.0 °F 26.4 °F 26.6 °F 80% 30.13 in 4.0 mi NNW 5.8 mph - N/A   Haze
4:55 PM 30.2 °F 24.3 °F 26.6 °F 86% 30.14 in 3.0 mi NNW 5.8 mph - N/A   Overcast
5:15 PM 30.2 °F 24.3 °F 26.6 °F 86% 30.14 in 2.5 mi NNW 5.8 mph - N/A   Overcast
5:35 PM 30.2 °F 24.3 °F 26.6 °F 86% 30.15 in 5.0 mi NNW 5.8 mph - N/A   Haze
5:55 PM 30.2 °F 25.4 °F 24.8 °F 80% 30.15 in 5.0 mi NNW 4.6 mph - N/A   Haze
6:15 PM 30.2 °F 24.3 °F 24.8 °F 80% 30.15 in 7.0 mi NNW 5.8 mph - N/A   Overcast
6:35 PM 28.4 °F 22.2 °F 23.0 °F 80% 30.16 in 10.0 mi NNW 5.8 mph - N/A   Overcast
6:55 PM 28.4 °F 20.4 °F 23.0 °F 80% 30.17 in 7.0 mi NNW 8.1 mph - N/A   Overcast
7:15 PM 28.4 °F 21.2 °F 23.0 °F 80% 30.19 in 7.0 mi NNW 6.9 mph - N/A   Overcast
7:35 PM 28.4 °F 19.1 °F 21.2 °F 74% 30.19 in 7.0 mi North 10.4 mph - N/A   Overcast
7:55 PM 26.6 °F 19.1 °F 21.2 °F 80% 30.19 in 7.0 mi North 6.9 mph - N/A   Overcast
8:15 PM 26.6 °F 19.1 °F 21.2 °F 80% 30.20 in 7.0 mi North 6.9 mph - N/A   Overcast
8:35 PM 26.6 °F 18.2 °F 23.0 °F 86% 30.20 in 4.0 mi NNW 8.1 mph - N/A   Overcast
8:55 PM 26.6 °F 20.0 °F 21.2 °F 80% 30.19 in 2.5 mi North 5.8 mph - N/A Snow Light Snow
9:15 PM 26.6 °F 21.2 °F 21.2 °F 80% 30.20 in 1.2 mi NNW 4.6 mph - N/A Snow Light Snow
9:35 PM 26.6 °F 22.6 °F 21.2 °F 80% 30.21 in 1.2 mi NNW 3.5 mph - N/A Snow Light Snow
9:55 PM 24.8 °F 16.9 °F 21.2 °F 86% 30.22 in 1.0 mi NE 6.9 mph - N/A Snow Snow
10:15 PM 24.8 °F 19.1 °F 21.2 °F 86% 30.23 in 2.0 mi North 4.6 mph - N/A Snow Light Snow
10:35 PM 23.0 °F 14.7 °F 19.4 °F 86% 30.24 in 1.8 mi NNE 6.9 mph - N/A Snow Light Snow
10:55 PM 23.0 °F 14.7 °F 19.4 °F 86% 30.24 in 2.5 mi NNE 6.9 mph - N/A Snow Light Snow
11:15 PM 23.0 °F 14.7 °F 17.6 °F 80% 30.24 in 3.0 mi North 6.9 mph - N/A Snow Light Snow
11:35 PM 23.0 °F 17.0 °F 17.6 °F 80% 30.25 in 1.8 mi North 4.6 mph - N/A Snow Light Snow
11:55 PM 21.2 °F 14.9 °F 17.6 °F 86% 30.24 in 2.5 mi North 4.6 mph - N/A Snow Light Snow